Henderson, KY

9:22 AM CST on November 17, 2019 (GMT -0600)
Henderson City-County

Weather History for KEHR - July, 2019

Change the Weather History Date:

Sunday, July 21, 2019

  Actual Average Record
Temperature  
Mean Temperature 80 °F -  
Max Temperature 89 °F 89 °F 100 °F (1943)
Min Temperature 71 °F 68 °F 51 °F (1944)
Cooling Degree Days 15    
Growing Degree Days 30 (Base 50)    
Moisture  
Dew Point 76 °F    
Average Humidity 87    
Maximum Humidity 100    
Minimum Humidity 70    
Precipitation  
Precipitation 0.97 in - - ()
Sea Level Pressure  
Sea Level Pressure 29.93 in    
Wind  
Wind Speed 6 mph (SSW)    
Max Wind Speed 12 mph    
Max Gust Speed 20 mph    
Visibility 9 miles    
Events Rain , Thunderstorm    
Averages and records for this station are not official NWS values.
T = Trace of Precipitation, MM = Missing Value Source: NWS Daily Summary

Daily Weather History Graph

Daily Weather History Graph

Search for Another Location

Airport or City:

Astronomy

Jul. 21, 2019 Rise Set
Actual Time 5:45 AM CDT 8:08 PM CDT
Civil Twilight 5:14 AM CDT 8:38 PM CDT
Nautical Twilight 4:37 AM CDT 9:15 PM CDT
Astronomical Twilight 3:56 AM CDT 9:56 PM CDT
Moon 11:07 PM CDT (7/21) 10:01 AM CDT (7/21)
Length of Visible Light 15h 23m
Length of Day
14h 23m
Waning Gibbous, 80% of the Moon is Illuminated
Jul 21
Waning Gibbous
Jul 24
Last Quarter
Jul 31
New
Aug 7
First Quarter
Aug 15
Full

Hourly Weather History & Observations

Time (CDT) Temp. Heat Index Dew Point Humidity Pressure Visibility Wind Dir Wind Speed Gust Speed Precip Events Conditions
12:56 AM 75.9 °F - 73.9 °F 94% 29.94 in 10.0 mi South 4.6 mph - N/A   Clear
1:56 AM 75.0 °F - 73.0 °F 94% 29.93 in 10.0 mi South 3.5 mph - N/A   Clear
2:56 AM 75.0 °F - 73.0 °F 94% 29.93 in 10.0 mi South 3.5 mph - N/A   Clear
3:56 AM 75.0 °F - 73.0 °F 94% 29.93 in 10.0 mi South 6.9 mph - N/A   Clear
4:56 AM 75.0 °F - 73.9 °F 96% 29.94 in 10.0 mi South 6.9 mph - N/A   Partly Cloudy
5:56 AM 75.0 °F - 73.9 °F 96% 29.95 in 10.0 mi SSW 4.6 mph - N/A   Clear
6:56 AM 75.9 °F - 75.0 °F 97% 29.96 in 10.0 mi South 5.8 mph - N/A   Clear
7:56 AM 79.0 °F - 77.0 °F 94% 29.95 in 10.0 mi SSW 3.5 mph - N/A   Clear
8:56 AM 82.9 °F 92.8 °F 78.1 °F 85% 29.95 in 10.0 mi SSW 6.9 mph - N/A   Clear
9:56 AM 84.9 °F 97.5 °F 79.0 °F 82% 29.96 in 10.0 mi SSW 8.1 mph - N/A   Clear
10:56 AM 87.1 °F 101.5 °F 79.0 °F 77% 29.97 in 10.0 mi WSW 6.9 mph - N/A   Partly Cloudy
11:56 AM 89.1 °F 106.4 °F 80.1 °F 75% 29.95 in 10.0 mi South 9.2 mph - N/A   Scattered Clouds
12:56 PM 89.1 °F 104.4 °F 79.0 °F 72% 29.94 in 10.0 mi SW 8.1 mph - N/A   Mostly Cloudy
1:56 PM 89.1 °F 103.2 °F 78.1 °F 70% 29.92 in 10.0 mi SSW 11.5 mph - N/A   Partly Cloudy
2:56 PM 89.1 °F 103.2 °F 78.1 °F 70% 29.89 in 10.0 mi SW 11.5 mph - N/A   Clear
3:56 PM 89.1 °F 103.2 °F 78.1 °F 70% 29.89 in 10.0 mi SSW 11.5 mph - N/A   Partly Cloudy
4:56 PM 87.1 °F 99.8 °F 78.1 °F 74% 29.89 in 10.0 mi SW 6.9 mph - N/A   Partly Cloudy
5:56 PM 88.0 °F 101.3 °F 78.1 °F 72% 29.88 in 10.0 mi SSW 10.4 mph - N/A   Clear
6:56 PM 84.9 °F 95.3 °F 77.0 °F 77% 29.87 in 10.0 mi SSW 5.8 mph - N/A   Clear
7:51 PM 82.4 °F 92.4 °F 78.8 °F 89% 29.90 in 10.0 mi SSW 3.5 mph - N/A Thunderstorm Clear
7:56 PM 81.0 °F 88.6 °F 78.1 °F 91% 29.89 in 10.0 mi SSW 4.6 mph - N/A Thunderstorm Clear
8:56 PM 73.0 °F - 72.0 °F 96% 29.95 in 3.0 mi WNW 10.4 mph 19.6 mph 0.48 in Rain , Thunderstorm Heavy Rain
9:56 PM 73.0 °F - 72.0 °F 96% 29.94 in 10.0 mi East 3.5 mph - 0.09 in Rain , Thunderstorm Light Rain
10:56 PM 73.0 °F - 73.0 °F 100% 29.95 in 9.0 mi NNW 3.5 mph - 0.05 in   Partly Cloudy
11:28 PM 73.4 °F - 71.6 °F 94% 29.98 in 4.0 mi NW 5.8 mph - 0.19 in Rain , Thunderstorm Rain
11:48 PM 71.6 °F - 71.6 °F 100% 29.95 in 4.0 mi Variable 4.6 mph - 0.33 in Rain Rain
11:56 PM 72.0 °F - 72.0 °F 100% 29.94 in 6.0 mi SSE 4.6 mph - 0.35 in Rain Light Rain